sat.trackr.live / text

‹ back to catalog

STARLINK-36809

NORAD 67929 · 2026-036AB

PAYLOAD ACTIVE UNKNOWN

§ Identity

Operator
Country
US
Launch date
2026-02-22
Launch site
AFETR
Launch vehicle
Mass (kg)
RCS (m²)

Purposes: comms

External: N2YO · Heavens-Above · Gunter

§ Orbital elements

Epoch: 2026-05-25T02:59:34.270944Z

Period
94.27 min
Inclination
43.0026°
Eccentricity
0.0000082
Mean motion
15.27591499 rev/d
Perigee alt
483.0 km
Apogee alt
483.1 km
Semi-major
6,861.2 km
B*
2.6255e-4
RAAN
173.4329°
Arg perigee
327.7804°
Mean anomaly
32.3042°
Rev number
1,541

§ Raw data

STARLINK-368091 67929U 26036AB  26145.12470221  .00006972  00000+0  26255-3 0  99932 67929  43.0026 173.4329 0000082 327.7804  32.3042 15.27591499 15417

JSON: /api/v1/satellites/67929 · /tle

For live sub-satellite position, see the globe view (requires WebGL).

§ Visibility from observer

Set your observer location to see the next 7 days of passes ≥ 10°. The values pass through the URL so the page stays shareable.

No JS? Fill the form by hand. The geolocation button needs JavaScript.